Latham, NY

9:07 PM EST on February 06, 2016 (GMT -0500)
Albany International

Weather History for KALB - May, 2014

Change the Weather History Date:

Thursday, May 1, 2014

  Actual Average Record
Temperature  
Mean Temperature 60 °F 54 °F  
Max Temperature 73 °F 65 °F 86 °F (2001)
Min Temperature 47 °F 43 °F 28 °F (1961)
Degree Days  
Heating Degree Days 5 12  
Month to date heating degree days 5 12  
Since 1 July heating degree days 6794 6405  
Cooling Degree Days 0 0  
Month to date cooling degree days 0 0  
Year to date cooling degree days 6 4  
Growing Degree Days 10 (Base 50)    
Moisture  
Dew Point 48 °F    
Average Humidity 74    
Maximum Humidity 93    
Minimum Humidity 54    
Precipitation  
Precipitation 0.15 in 0.11 in 1.54 in (1953)
Month to date precipitation 0.15 0.11  
Year to date precipitation 11.10 11.28  
Snow  
Snow 0.00 in 0.00 in T in (1978)
Month to date snowfall 0.0 0.0  
Since 1 July snowfall 73.5 59.0  
Snow Depth 0.00 in    
Sea Level Pressure  
Sea Level Pressure 29.79 in    
Wind  
Wind Speed 6 mph (WNW)    
Max Wind Speed 24 mph    
Max Gust Speed 32 mph    
Visibility 7 miles    
Events Fog , Rain    
T = Trace of Precipitation, MM = Missing Value Source: NWS Daily Summary

Daily Weather History Graph

Daily Weather History Graph

Search for Another Location

Airport or City:

Trip Planner

Search our weather history database for the weather conditions in past years. The results will help you decide how hot, cold, wet, or windy it might be!

Date:

Astronomy

May. 01, 2014 Rise Set
Actual Time 5:49 AM EDT 7:55 PM EDT
Civil Twilight 5:18 AM EDT 8:26 PM EDT
Nautical Twilight 4:40 AM EDT 9:04 PM EDT
Astronomical Twilight 3:59 AM EDT 9:46 PM EDT
Moon 7:33 AM EDT (5/1) 10:28 PM EDT (5/1)
Length of Visible Light 15h 07m
Length of Day
14h 06m
Waxing Crescent, 6% of the Moon is Illuminated
May 1
Waxing Crescent
May 6
First Quarter
May 14
Full
May 21
Last Quarter
May 28
New

Hourly Weather History & Observations

Time (EDT) Temp. Dew Point Humidity Pressure Visibility Wind Dir Wind Speed Gust Speed Precip Events Conditions
12:51 AM 48.0 °F 45.0 °F 89% 29.98 in 6.0 mi SSE 5.8 mph - 0.04 in Rain Light Rain
1:27 AM 48.0 °F 45.0 °F 89% 29.96 in 6.0 mi Calm Calm - 0.06 in Rain Light Rain
1:51 AM 48.0 °F 45.0 °F 89% 29.93 in 7.0 mi SE 5.8 mph - 0.09 in Rain Light Rain
2:05 AM 48.0 °F 46.0 °F 93% 29.93 in 10.0 mi SSW 4.6 mph - 0.00 in Rain Light Rain
2:51 AM 48.0 °F 46.0 °F 93% 29.90 in 10.0 mi SSW 4.6 mph - 0.00 in   Overcast
3:51 AM 50.0 °F 46.9 °F 89% 29.85 in 10.0 mi Calm Calm - 0.00 in   Overcast
4:30 AM 48.0 °F 46.0 °F 93% 29.84 in 5.0 mi NNW 9.2 mph - 0.00 in   Light Drizzle
4:51 AM 46.9 °F 46.0 °F 97% 29.85 in 2.0 mi NNW 4.6 mph - 0.00 in   Light Drizzle
5:00 AM 46.9 °F 46.0 °F 97% 29.83 in 1.5 mi North 5.8 mph - 0.01 in Rain Heavy Rain
5:20 AM 46.9 °F 45.0 °F 93% 29.83 in 3.0 mi ENE 3.5 mph - 0.07 in Rain Light Rain
5:44 AM 46.9 °F 46.0 °F 97% 29.83 in 1.5 mi East 3.5 mph - 0.08 in   Light Drizzle
5:51 AM 46.9 °F 46.0 °F 97% 29.83 in 1.5 mi Calm Calm - 0.08 in   Light Drizzle
6:51 AM 48.0 °F 46.0 °F 93% 29.83 in 1.0 mi NNW 3.5 mph - 0.00 in   Light Drizzle
7:51 AM 48.9 °F 46.9 °F 93% 29.79 in 1.0 mi ENE 4.6 mph - 0.00 in   Light Drizzle
8:02 AM 50.0 °F 48.0 °F 93% 29.77 in 2.5 mi ESE 5.8 mph - 0.00 in Fog Patches of Fog
8:28 AM 52.0 °F 50.0 °F 93% 29.79 in 3.0 mi Calm Calm - 0.00 in   Overcast
8:51 AM 53.1 °F 50.0 °F 89% 29.80 in 6.0 mi South 5.8 mph - 0.00 in   Overcast
9:51 AM 55.9 °F 52.0 °F 87% 29.79 in 8.0 mi South 9.2 mph - 0.00 in   Overcast
10:51 AM 57.9 °F 53.1 °F 84% 29.78 in 10.0 mi Calm Calm - N/A   Overcast
11:10 AM 59.0 °F 54.0 °F 83% 29.77 in 10.0 mi SSW 5.8 mph - N/A   Mostly Cloudy
11:42 AM 61.0 °F 54.0 °F 78% 29.77 in 10.0 mi South 4.6 mph - N/A   Mostly Cloudy
11:51 AM 62.1 °F 55.0 °F 78% 29.77 in 10.0 mi SSE 5.8 mph - N/A   Mostly Cloudy
12:51 PM 66.0 °F 55.9 °F 70% 29.75 in 10.0 mi Calm Calm - N/A   Mostly Cloudy
1:51 PM 68.0 °F 55.0 °F 63% 29.72 in 10.0 mi Variable 3.5 mph - N/A   Mostly Cloudy
2:51 PM 68.0 °F 55.0 °F 63% 29.69 in 10.0 mi NNW 4.6 mph - N/A   Mostly Cloudy
3:51 PM 69.1 °F 54.0 °F 58% 29.66 in 10.0 mi Calm Calm - N/A   Mostly Cloudy
4:51 PM 66.9 °F 52.0 °F 59% 29.68 in 10.0 mi NW 13.8 mph 23.0 mph N/A   Mostly Cloudy
5:51 PM 64.9 °F 51.1 °F 61% 29.70 in 10.0 mi WNW 15.0 mph - 0.00 in   Mostly Cloudy
6:51 PM 62.1 °F 50.0 °F 65% 29.70 in 10.0 mi WNW 8.1 mph - 0.00 in Rain Light Rain
7:51 PM 60.1 °F 50.0 °F 69% 29.72 in 10.0 mi NW 8.1 mph - 0.00 in   Scattered Clouds
8:51 PM 57.9 °F 48.0 °F 70% 29.76 in 10.0 mi NW 17.3 mph 27.6 mph N/A   Mostly Cloudy
9:51 PM 55.0 °F 39.0 °F 55% 29.78 in 10.0 mi NW 8.1 mph - N/A   Mostly Cloudy
10:51 PM 54.0 °F 37.9 °F 55% 29.77 in 10.0 mi NW 10.4 mph - N/A   Mostly Cloudy
11:51 PM 51.1 °F 37.9 °F 61% 29.77 in 10.0 mi Calm Calm - N/A   Mostly Cloudy